owner,sensor,date,latitude,longitude,vertical_datum,sea_water_practical_salinity,qcFlag 
SCCF RECON,ioos:station:SCCF:16:1,2010-03-01T00:00:00Z,26.4345,-81.9647,2.059,33.13,1111122 
SCCF RECON,ioos:station:SCCF:16:1,2010-03-01T01:00:00Z,26.4345,-81.9647,2.266,33.13,1111122 
SCCF RECON,ioos:station:SCCF:16:1,2010-03-01T02:00:00Z,26.4345,-81.9647,2.515,33.4,1111122 
SCCF RECON,ioos:station:SCCF:16:1,2010-03-01T03:00:00Z,26.4345,-81.9647,2.694,33.54,1111122 
SCCF RECON,ioos:station:SCCF:16:1,2010-03-01T04:00:00Z,26.4345,-81.9647,2.827,33.74,1111122 
SCCF RECON,ioos:station:SCCF:16:1,2010-03-01T05:00:00Z,26.4345,-81.9647,2.914,34.06,1111122 
SCCF RECON,ioos:station:SCCF:16:1,2010-03-01T06:00:00Z,26.4345,-81.9647,2.858,34.08,1111122 
SCCF RECON,ioos:station:SCCF:16:1,2010-03-01T07:00:00Z,26.4345,-81.9647,2.691,34.07,1111122 
SCCF RECON,ioos:station:SCCF:16:1,2010-03-01T08:00:00Z,26.4345,-81.9647,2.431,34.03,1111122 
SCCF RECON,ioos:station:SCCF:16:1,2010-03-01T09:00:00Z,26.4345,-81.9647,2.213,33.57,1111122 
SCCF RECON,ioos:station:SCCF:16:1,2010-03-01T10:00:00Z,26.4345,-81.9647,2.073,33.16,1111122 
SCCF RECON,ioos:station:SCCF:16:1,2010-03-01T11:00:00Z,26.4345,-81.9647,1.928,33.27,1111122 
SCCF RECON,ioos:station:SCCF:16:1,2010-03-01T12:00:00Z,26.4345,-81.9647,1.895,33.45,1111122 
SCCF RECON,ioos:station:SCCF:16:1,2010-03-01T13:00:00Z,26.4345,-81.9647,2.075,33.34,1111122 
SCCF RECON,ioos:station:SCCF:16:1,2010-03-01T14:00:00Z,26.4345,-81.9647,2.343,33.41,1111122 
SCCF RECON,ioos:station:SCCF:16:1,2010-03-01T15:00:00Z,26.4345,-81.9647,2.54,33.78,1111122 
SCCF RECON,ioos:station:SCCF:16:1,2010-03-01T16:00:00Z,26.4345,-81.9647,2.668,34.01,1111122 
SCCF RECON,ioos:station:SCCF:16:1,2010-03-01T17:00:00Z,26.4345,-81.9647,2.743,34.06,1111122 
SCCF RECON,ioos:station:SCCF:16:1,2010-03-01T18:00:00Z,26.4345,-81.9647,2.721,34.08,1111122 
SCCF RECON,ioos:station:SCCF:16:1,2010-03-01T19:00:00Z,26.4345,-81.9647,2.632,34.09,1111122 
SCCF RECON,ioos:station:SCCF:16:1,2010-03-01T20:00:00Z,26.4345,-81.9647,2.435,34.08,1111122 
SCCF RECON,ioos:station:SCCF:16:1,2010-03-01T21:00:00Z,26.4345,-81.9647,2.265,34.06,1111122 
SCCF RECON,ioos:station:SCCF:16:1,2010-03-01T22:00:00Z,26.4345,-81.9647,2.118,33.58,1111122 
SCCF RECON,ioos:station:SCCF:16:1,2010-03-01T23:00:00Z,26.4345,-81.9647,1.966,33.54,1111122 
SCCF RECON,ioos:station:SCCF:16:1,2010-03-02T00:00:00Z,26.4345,-81.9647,1.93,33.22,1111122 
SCCF RECON,ioos:station:SCCF:16:1,2010-03-02T01:00:00Z,26.4345,-81.9647,2.015,33.65,1111122 
SCCF RECON,ioos:station:SCCF:16:1,2010-03-02T02:00:00Z,26.4345,-81.9647,2.287,33.7,1111122 
SCCF RECON,ioos:station:SCCF:16:1,2010-03-02T03:00:00Z,26.4345,-81.9647,2.558,33.98,1111122 
SCCF RECON,ioos:station:SCCF:16:1,2010-03-02T04:00:00Z,26.4345,-81.9647,2.712,33.9,1111122 
SCCF RECON,ioos:station:SCCF:16:1,2010-03-02T05:00:00Z,26.4345,-81.9647,2.809,33.83,1111122 
SCCF RECON,ioos:station:SCCF:16:1,2010-03-02T06:00:00Z,26.4345,-81.9647,2.839,33.91,1111122 
SCCF RECON,ioos:station:SCCF:16:1,2010-03-02T07:00:00Z,26.4345,-81.9647,2.765,33.91,1111122 
SCCF RECON,ioos:station:SCCF:16:1,2010-03-02T08:00:00Z,26.4345,-81.9647,2.608,33.88,1111122 
SCCF RECON,ioos:station:SCCF:16:1,2010-03-02T09:00:00Z,26.4345,-81.9647,2.399,33.81,1111122 
SCCF RECON,ioos:station:SCCF:16:1,2010-03-02T10:00:00Z,26.4345,-81.9647,2.245,33.74,1111122 
SCCF RECON,ioos:station:SCCF:16:1,2010-03-02T11:00:00Z,26.4345,-81.9647,2.184,33.43,1111122 
SCCF RECON,ioos:station:SCCF:16:1,2010-03-02T12:00:00Z,26.4345,-81.9647,2.211,33.24,1111122 
SCCF RECON,ioos:station:SCCF:16:1,2010-03-02T13:00:00Z,26.4345,-81.9647,2.333,33.01,1111122 
SCCF RECON,ioos:station:SCCF:16:1,2010-03-02T14:00:00Z,26.4345,-81.9647,2.515,33.11,1111122 
SCCF RECON,ioos:station:SCCF:16:1,2010-03-02T15:00:00Z,26.4345,-81.9647,2.716,33.35,1111122 
SCCF RECON,ioos:station:SCCF:16:1,2010-03-02T16:00:00Z,26.4345,-81.9647,2.822,33.62,1111122 
SCCF RECON,ioos:station:SCCF:16:1,2010-03-02T17:00:00Z,26.4345,-81.9647,2.849,33.65,1111122 
SCCF RECON,ioos:station:SCCF:16:1,2010-03-02T18:00:00Z,26.4345,-81.9647,2.885,33.59,1111122 
SCCF RECON,ioos:station:SCCF:16:1,2010-03-02T19:00:00Z,26.4345,-81.9647,2.827,33.57,1111122 
SCCF RECON,ioos:station:SCCF:16:1,2010-03-02T20:00:00Z,26.4345,-81.9647,2.691,33.45,1111122 
SCCF RECON,ioos:station:SCCF:16:1,2010-03-02T21:00:00Z,26.4345,-81.9647,2.509,33.44,1111122 
SCCF RECON,ioos:station:SCCF:16:1,2010-03-02T22:00:00Z,26.4345,-81.9647,2.304,33.63,1111122 
SCCF RECON,ioos:station:SCCF:16:1,2010-03-02T23:00:00Z,26.4345,-81.9647,1.995,33.4,1111122 
SCCF RECON,ioos:station:SCCF:16:1,2010-03-03T00:00:00Z,26.4345,-81.9647,1.871,32.94,1111122 
SCCF RECON,ioos:station:SCCF:16:1,2010-03-03T01:00:00Z,26.4345,-81.9647,1.84,33.76,1111122 
SCCF RECON,ioos:station:SCCF:16:1,2010-03-03T02:00:00Z,26.4345,-81.9647,1.99,33.81,1111122 
SCCF RECON,ioos:station:SCCF:16:1,2010-03-03T03:00:00Z,26.4345,-81.9647,2.209,33.9,1111122 
SCCF RECON,ioos:station:SCCF:16:1,2010-03-03T04:00:00Z,26.4345,-81.9647,2.372,34.04,1111122 
SCCF RECON,ioos:station:SCCF:16:1,2010-03-03T05:00:00Z,26.4345,-81.9647,2.407,34.0,1111122 
SCCF RECON,ioos:station:SCCF:16:1,2010-03-03T06:00:00Z,26.4345,-81.9647,2.535,34.02,1111122 
SCCF RECON,ioos:station:SCCF:16:1,2010-03-03T07:00:00Z,26.4345,-81.9647,2.586,33.96,1111122 
SCCF RECON,ioos:station:SCCF:16:1,2010-03-03T08:00:00Z,26.4345,-81.9647,2.503,34.05,1111122 
SCCF RECON,ioos:station:SCCF:16:1,2010-03-03T09:00:00Z,26.4345,-81.9647,2.264,33.92,1111122 
SCCF RECON,ioos:station:SCCF:16:1,2010-03-03T10:00:00Z,26.4345,-81.9647,2.056,33.93,1111122 
SCCF RECON,ioos:station:SCCF:16:1,2010-03-03T11:00:00Z,26.4345,-81.9647,1.926,33.61,1111122 
SCCF RECON,ioos:station:SCCF:16:1,2010-03-03T12:00:00Z,26.4345,-81.9647,1.894,32.86,1111122 
SCCF RECON,ioos:station:SCCF:16:1,2010-03-03T13:00:00Z,26.4345,-81.9647,1.869,32.49,1111122 
SCCF RECON,ioos:station:SCCF:16:1,2010-03-03T14:00:00Z,26.4345,-81.9647,2.005,32.96,1111122 
SCCF RECON,ioos:station:SCCF:16:1,2010-03-03T15:00:00Z,26.4345,-81.9647,2.244,33.35,1111122 
SCCF RECON,ioos:station:SCCF:16:1,2010-03-03T16:00:00Z,26.4345,-81.9647,2.392,33.45,1111122 
SCCF RECON,ioos:station:SCCF:16:1,2010-03-03T17:00:00Z,26.4345,-81.9647,2.503,33.16,1111122 
SCCF RECON,ioos:station:SCCF:16:1,2010-03-03T18:00:00Z,26.4345,-81.9647,2.584,33.35,1111122 
SCCF RECON,ioos:station:SCCF:16:1,2010-03-03T19:00:00Z,26.4345,-81.9647,2.556,33.28,1111122 
SCCF RECON,ioos:station:SCCF:16:1,2010-03-03T20:00:00Z,26.4345,-81.9647,2.506,33.25,1111122 
SCCF RECON,ioos:station:SCCF:16:1,2010-03-03T21:00:00Z,26.4345,-81.9647,2.34,33.26,1111122 
SCCF RECON,ioos:station:SCCF:16:1,2010-03-03T22:00:00Z,26.4345,-81.9647,2.147,33.38,1111122 
SCCF RECON,ioos:station:SCCF:16:1,2010-03-03T23:00:00Z,26.4345,-81.9647,2.037,32.63,1111122 
SCCF RECON,ioos:station:SCCF:16:1,2010-03-04T00:00:00Z,26.4345,-81.9647,1.901,32.3,1111122 
SCCF RECON,ioos:station:SCCF:16:1,2010-03-04T01:00:00Z,26.4345,-81.9647,1.801,32.35,1111122 
SCCF RECON,ioos:station:SCCF:16:1,2010-03-04T02:00:00Z,26.4345,-81.9647,1.732,31.61,1111122 
SCCF RECON,ioos:station:SCCF:16:1,2010-03-04T03:00:00Z,26.4345,-81.9647,1.861,32.56,1111122 
SCCF RECON,ioos:station:SCCF:16:1,2010-03-04T04:00:00Z,26.4345,-81.9647,2.07,32.6,1111122 
SCCF RECON,ioos:station:SCCF:16:1,2010-03-04T05:00:00Z,26.4345,-81.9647,2.299,32.46,1111122 
SCCF RECON,ioos:station:SCCF:16:1,2010-03-04T06:00:00Z,26.4345,-81.9647,2.431,33.11,1111122 
SCCF RECON,ioos:station:SCCF:16:1,2010-03-04T07:00:00Z,26.4345,-81.9647,2.516,33.35,1111122 
SCCF RECON,ioos:station:SCCF:16:1,2010-03-04T08:00:00Z,26.4345,-81.9647,2.544,33.43,1111122 
SCCF RECON,ioos:station:SCCF:16:1,2010-03-04T09:00:00Z,26.4345,-81.9647,2.444,33.49,1111122 
SCCF RECON,ioos:station:SCCF:16:1,2010-03-04T10:00:00Z,26.4345,-81.9647,2.321,32.99,1111122 
SCCF RECON,ioos:station:SCCF:16:1,2010-03-04T11:00:00Z,26.4345,-81.9647,2.244,32.38,1111122 
SCCF RECON,ioos:station:SCCF:16:1,2010-03-04T12:00:00Z,26.4345,-81.9647,2.187,32.37,1111122 
SCCF RECON,ioos:station:SCCF:16:1,2010-03-04T13:00:00Z,26.4345,-81.9647,2.146,32.58,1111122 
SCCF RECON,ioos:station:SCCF:16:1,2010-03-04T14:00:00Z,26.4345,-81.9647,2.173,32.51,1111122 
SCCF RECON,ioos:station:SCCF:16:1,2010-03-04T15:00:00Z,26.4345,-81.9647,2.207,32.2,1111122 
SCCF RECON,ioos:station:SCCF:16:1,2010-03-04T16:00:00Z,26.4345,-81.9647,2.306,32.21,1111122 
SCCF RECON,ioos:station:SCCF:16:1,2010-03-04T17:00:00Z,26.4345,-81.9647,2.518,32.6,1111122 
SCCF RECON,ioos:station:SCCF:16:1,2010-03-04T18:00:00Z,26.4345,-81.9647,2.593,32.8,1111122 
SCCF RECON,ioos:station:SCCF:16:1,2010-03-04T19:00:00Z,26.4345,-81.9647,2.631,33.18,1111122 
SCCF RECON,ioos:station:SCCF:16:1,2010-03-04T20:00:00Z,26.4345,-81.9647,2.568,33.36,1111122 
SCCF RECON,ioos:station:SCCF:16:1,2010-03-04T21:00:00Z,26.4345,-81.9647,2.444,33.33,1111122 
SCCF RECON,ioos:station:SCCF:16:1,2010-03-04T22:00:00Z,26.4345,-81.9647,2.256,33.08,1111122 
SCCF RECON,ioos:station:SCCF:16:1,2010-03-04T23:00:00Z,26.4345,-81.9647,2.112,32.73,1111122 
SCCF RECON,ioos:station:SCCF:16:1,2010-03-05T00:00:00Z,26.4345,-81.9647,1.977,31.81,1111122 
SCCF RECON,ioos:station:SCCF:16:1,2010-03-05T01:00:00Z,26.4345,-81.9647,1.851,32.44,1111122 
SCCF RECON,ioos:station:SCCF:16:1,2010-03-05T02:00:00Z,26.4345,-81.9647,1.742,31.86,1111122 
SCCF RECON,ioos:station:SCCF:16:1,2010-03-05T03:00:00Z,26.4345,-81.9647,1.748,33.03,1111122 
SCCF RECON,ioos:station:SCCF:16:1,2010-03-05T04:00:00Z,26.4345,-81.9647,1.942,33.19,1111122 
SCCF RECON,ioos:station:SCCF:16:1,2010-03-05T05:00:00Z,26.4345,-81.9647,2.071,32.85,1111122 
SCCF RECON,ioos:station:SCCF:16:1,2010-03-05T06:00:00Z,26.4345,-81.9647,2.226,32.24,1111122 
SCCF RECON,ioos:station:SCCF:16:1,2010-03-05T07:00:00Z,26.4345,-81.9647,2.282,32.79,1111122 
SCCF RECON,ioos:station:SCCF:16:1,2010-03-05T08:00:00Z,26.4345,-81.9647,2.336,32.79,1111122 
SCCF RECON,ioos:station:SCCF:16:1,2010-03-05T09:00:00Z,26.4345,-81.9647,2.349,32.64,1111122 
SCCF RECON,ioos:station:SCCF:16:1,2010-03-05T10:00:00Z,26.4345,-81.9647,2.327,32.76,1111122 
SCCF RECON,ioos:station:SCCF:16:1,2010-03-05T11:00:00Z,26.4345,-81.9647,2.277,32.6,1111122 
SCCF RECON,ioos:station:SCCF:16:1,2010-03-05T12:00:00Z,26.4345,-81.9647,2.195,32.59,1111122 
SCCF RECON,ioos:station:SCCF:16:1,2010-03-05T13:00:00Z,26.4345,-81.9647,2.228,32.72,1111122 
SCCF RECON,ioos:station:SCCF:16:1,2010-03-05T14:00:00Z,26.4345,-81.9647,2.235,32.18,1111122 
SCCF RECON,ioos:station:SCCF:16:1,2010-03-05T15:00:00Z,26.4345,-81.9647,2.278,31.83,1111122 
SCCF RECON,ioos:station:SCCF:16:1,2010-03-05T16:00:00Z,26.4345,-81.9647,2.343,32.15,1111122 
SCCF RECON,ioos:station:SCCF:16:1,2010-03-05T17:00:00Z,26.4345,-81.9647,2.458,32.02,1111122 
SCCF RECON,ioos:station:SCCF:16:1,2010-03-05T18:00:00Z,26.4345,-81.9647,2.577,32.04,1111122 
SCCF RECON,ioos:station:SCCF:16:1,2010-03-05T19:00:00Z,26.4345,-81.9647,2.641,33.27,1111122 
SCCF RECON,ioos:station:SCCF:16:1,2010-03-05T20:00:00Z,26.4345,-81.9647,2.661,33.56,1111122 
SCCF RECON,ioos:station:SCCF:16:1,2010-03-05T21:00:00Z,26.4345,-81.9647,2.571,33.45,1111122 
SCCF RECON,ioos:station:SCCF:16:1,2010-03-05T22:00:00Z,26.4345,-81.9647,2.443,33.52,1111122 
SCCF RECON,ioos:station:SCCF:16:1,2010-03-05T23:00:00Z,26.4345,-81.9647,2.298,33.27,1111122 
SCCF RECON,ioos:station:SCCF:16:1,2010-03-06T00:00:00Z,26.4345,-81.9647,2.167,32.7,1111122 
SCCF RECON,ioos:station:SCCF:16:1,2010-03-06T01:00:00Z,26.4345,-81.9647,2.06,32.31,1111122 
SCCF RECON,ioos:station:SCCF:16:1,2010-03-06T02:00:00Z,26.4345,-81.9647,1.913,32.3,1111122 
SCCF RECON,ioos:station:SCCF:16:1,2010-03-06T03:00:00Z,26.4345,-81.9647,1.853,32.29,1111122 
SCCF RECON,ioos:station:SCCF:16:1,2010-03-06T04:00:00Z,26.4345,-81.9647,1.847,31.92,1111122 
SCCF RECON,ioos:station:SCCF:16:1,2010-03-06T05:00:00Z,26.4345,-81.9647,1.913,32.09,1111122 
SCCF RECON,ioos:station:SCCF:16:1,2010-03-06T06:00:00Z,26.4345,-81.9647,2.049,32.1,1111122 
SCCF RECON,ioos:station:SCCF:16:1,2010-03-06T07:00:00Z,26.4345,-81.9647,2.128,32.02,1111122 
SCCF RECON,ioos:station:SCCF:16:1,2010-03-06T08:00:00Z,26.4345,-81.9647,2.166,31.57,1111122 
SCCF RECON,ioos:station:SCCF:16:1,2010-03-06T09:00:00Z,26.4345,-81.9647,2.184,31.84,1111122 
SCCF RECON,ioos:station:SCCF:16:1,2010-03-06T10:00:00Z,26.4345,-81.9647,2.195,31.76,1111122 
SCCF RECON,ioos:station:SCCF:16:1,2010-03-06T11:00:00Z,26.4345,-81.9647,2.202,31.8,1111122 
SCCF RECON,ioos:station:SCCF:16:1,2010-03-06T12:00:00Z,26.4345,-81.9647,2.192,31.91,1111122 
SCCF RECON,ioos:station:SCCF:16:1,2010-03-06T13:00:00Z,26.4345,-81.9647,2.169,31.99,1111122 
SCCF RECON,ioos:station:SCCF:16:1,2010-03-06T14:00:00Z,26.4345,-81.9647,2.162,32.13,1111122 
SCCF RECON,ioos:station:SCCF:16:1,2010-03-06T15:00:00Z,26.4345,-81.9647,2.216,32.22,1111122 
SCCF RECON,ioos:station:SCCF:16:1,2010-03-06T16:00:00Z,26.4345,-81.9647,2.28,32.28,1111122 
SCCF RECON,ioos:station:SCCF:16:1,2010-03-06T17:00:00Z,26.4345,-81.9647,2.354,32.43,1111122 
SCCF RECON,ioos:station:SCCF:16:1,2010-03-06T18:00:00Z,26.4345,-81.9647,2.457,32.56,1111122 
SCCF RECON,ioos:station:SCCF:16:1,2010-03-06T19:00:00Z,26.4345,-81.9647,2.538,32.74,1111122 
SCCF RECON,ioos:station:SCCF:16:1,2010-03-06T20:00:00Z,26.4345,-81.9647,2.615,32.91,1111122 
SCCF RECON,ioos:station:SCCF:16:1,2010-03-06T21:00:00Z,26.4345,-81.9647,2.618,33.17,1111122 
SCCF RECON,ioos:station:SCCF:16:1,2010-03-06T22:00:00Z,26.4345,-81.9647,2.56,33.03,1111122 
SCCF RECON,ioos:station:SCCF:16:1,2010-03-06T23:00:00Z,26.4345,-81.9647,2.458,33.06,1111122 
SCCF RECON,ioos:station:SCCF:16:1,2010-03-07T00:00:00Z,26.4345,-81.9647,2.333,32.89,1111122 
SCCF RECON,ioos:station:SCCF:16:1,2010-03-07T01:00:00Z,26.4345,-81.9647,2.232,32.7,1111122 
SCCF RECON,ioos:station:SCCF:16:1,2010-03-07T02:00:00Z,26.4345,-81.9647,2.119,32.47,1111122 
SCCF RECON,ioos:station:SCCF:16:1,2010-03-07T03:00:00Z,26.4345,-81.9647,1.963,32.38,1111122 
SCCF RECON,ioos:station:SCCF:16:1,2010-03-07T04:00:00Z,26.4345,-81.9647,1.875,32.36,1111122 
SCCF RECON,ioos:station:SCCF:16:1,2010-03-07T05:00:00Z,26.4345,-81.9647,1.854,31.78,1111122 
SCCF RECON,ioos:station:SCCF:16:1,2010-03-07T06:00:00Z,26.4345,-81.9647,1.932,31.36,1111122 
SCCF RECON,ioos:station:SCCF:16:1,2010-03-07T07:00:00Z,26.4345,-81.9647,2.012,30.9,1111122 
SCCF RECON,ioos:station:SCCF:16:1,2010-03-07T08:00:00Z,26.4345,-81.9647,2.081,31.42,1111122 
SCCF RECON,ioos:station:SCCF:16:1,2010-03-07T09:00:00Z,26.4345,-81.9647,2.143,31.23,1111122 
SCCF RECON,ioos:station:SCCF:16:1,2010-03-07T10:00:00Z,26.4345,-81.9647,2.208,31.43,1111122 
SCCF RECON,ioos:station:SCCF:16:1,2010-03-07T11:00:00Z,26.4345,-81.9647,2.283,31.56,1111122 
SCCF RECON,ioos:station:SCCF:16:1,2010-03-07T12:00:00Z,26.4345,-81.9647,2.298,31.8,1111122 
SCCF RECON,ioos:station:SCCF:16:1,2010-03-07T13:00:00Z,26.4345,-81.9647,2.303,31.93,1111122 
SCCF RECON,ioos:station:SCCF:16:1,2010-03-07T14:00:00Z,26.4345,-81.9647,2.293,32.18,1111122 
SCCF RECON,ioos:station:SCCF:16:1,2010-03-07T15:00:00Z,26.4345,-81.9647,2.318,32.3,1111122 
SCCF RECON,ioos:station:SCCF:16:1,2010-03-07T16:00:00Z,26.4345,-81.9647,2.309,32.38,1111122 
SCCF RECON,ioos:station:SCCF:16:1,2010-03-07T17:00:00Z,26.4345,-81.9647,2.365,32.44,1111122 
SCCF RECON,ioos:station:SCCF:16:1,2010-03-07T18:00:00Z,26.4345,-81.9647,2.474,32.46,1111122 
SCCF RECON,ioos:station:SCCF:16:1,2010-03-07T19:00:00Z,26.4345,-81.9647,2.553,32.65,1111122 
SCCF RECON,ioos:station:SCCF:16:1,2010-03-07T20:00:00Z,26.4345,-81.9647,2.607,32.8,1111122 
SCCF RECON,ioos:station:SCCF:16:1,2010-03-07T21:00:00Z,26.4345,-81.9647,2.595,33.08,1111122 
SCCF RECON,ioos:station:SCCF:16:1,2010-03-07T22:00:00Z,26.4345,-81.9647,2.611,33.07,1111122 
SCCF RECON,ioos:station:SCCF:16:1,2010-03-07T23:00:00Z,26.4345,-81.9647,2.582,33.54,1111122 
SCCF RECON,ioos:station:SCCF:16:1,2010-03-08T00:00:00Z,26.4345,-81.9647,2.505,33.3,1111122 
SCCF RECON,ioos:station:SCCF:16:1,2010-03-08T01:00:00Z,26.4345,-81.9647,2.389,33.07,1111122 
SCCF RECON,ioos:station:SCCF:16:1,2010-03-08T02:00:00Z,26.4345,-81.9647,2.296,32.93,1111122 
SCCF RECON,ioos:station:SCCF:16:1,2010-03-08T03:00:00Z,26.4345,-81.9647,2.195,32.9,1111122 
SCCF RECON,ioos:station:SCCF:16:1,2010-03-08T04:00:00Z,26.4345,-81.9647,2.094,32.5,1111122 
SCCF RECON,ioos:station:SCCF:16:1,2010-03-08T05:00:00Z,26.4345,-81.9647,2.032,32.31,1111122 
SCCF RECON,ioos:station:SCCF:16:1,2010-03-08T06:00:00Z,26.4345,-81.9647,1.966,32.73,1111122 
SCCF RECON,ioos:station:SCCF:16:1,2010-03-08T07:00:00Z,26.4345,-81.9647,1.982,32.15,1111122 
SCCF RECON,ioos:station:SCCF:16:1,2010-03-08T08:00:00Z,26.4345,-81.9647,2.065,31.89,1111122 
SCCF RECON,ioos:station:SCCF:16:1,2010-03-08T09:00:00Z,26.4345,-81.9647,2.134,32.24,1111122 
SCCF RECON,ioos:station:SCCF:16:1,2010-03-08T10:00:00Z,26.4345,-81.9647,2.204,32.46,1111122 
SCCF RECON,ioos:station:SCCF:16:1,2010-03-08T11:00:00Z,26.4345,-81.9647,2.312,32.88,1111122 
SCCF RECON,ioos:station:SCCF:16:1,2010-03-08T12:00:00Z,26.4345,-81.9647,2.396,32.93,1111122 
SCCF RECON,ioos:station:SCCF:16:1,2010-03-08T13:00:00Z,26.4345,-81.9647,2.467,33.12,1111122 
SCCF RECON,ioos:station:SCCF:16:1,2010-03-08T14:00:00Z,26.4345,-81.9647,2.49,33.07,1111122 
SCCF RECON,ioos:station:SCCF:16:1,2010-03-08T15:00:00Z,26.4345,-81.9647,2.458,33.28,1111122 
SCCF RECON,ioos:station:SCCF:16:1,2010-03-08T16:00:00Z,26.4345,-81.9647,2.416,33.26,1111122 
SCCF RECON,ioos:station:SCCF:16:1,2010-03-08T17:00:00Z,26.4345,-81.9647,2.451,33.34,1111122 
SCCF RECON,ioos:station:SCCF:16:1,2010-03-08T18:00:00Z,26.4345,-81.9647,2.494,33.46,1111122 
SCCF RECON,ioos:station:SCCF:16:1,2010-03-08T19:00:00Z,26.4345,-81.9647,2.525,33.31,1111122 
SCCF RECON,ioos:station:SCCF:16:1,2010-03-08T20:00:00Z,26.4345,-81.9647,2.535,33.39,1111122 
SCCF RECON,ioos:station:SCCF:16:1,2010-03-08T21:00:00Z,26.4345,-81.9647,2.621,33.46,1111122 
SCCF RECON,ioos:station:SCCF:16:1,2010-03-08T22:00:00Z,26.4345,-81.9647,2.634,33.53,1111122 
SCCF RECON,ioos:station:SCCF:16:1,2010-03-08T23:00:00Z,26.4345,-81.9647,2.635,33.59,1111122 
SCCF RECON,ioos:station:SCCF:16:1,2010-03-09T00:00:00Z,26.4345,-81.9647,2.597,33.63,1111122 
SCCF RECON,ioos:station:SCCF:16:1,2010-03-09T01:00:00Z,26.4345,-81.9647,2.542,33.63,1111122 
SCCF RECON,ioos:station:SCCF:16:1,2010-03-09T02:00:00Z,26.4345,-81.9647,2.524,33.61,1111122 
SCCF RECON,ioos:station:SCCF:16:1,2010-03-09T03:00:00Z,26.4345,-81.9647,2.393,33.55,1111122 
SCCF RECON,ioos:station:SCCF:16:1,2010-03-09T04:00:00Z,26.4345,-81.9647,2.268,33.44,1111122 
SCCF RECON,ioos:station:SCCF:16:1,2010-03-09T05:00:00Z,26.4345,-81.9647,2.172,33.18,1111122 
SCCF RECON,ioos:station:SCCF:16:1,2010-03-09T06:00:00Z,26.4345,-81.9647,2.059,32.66,1111122 
SCCF RECON,ioos:station:SCCF:16:1,2010-03-09T07:00:00Z,26.4345,-81.9647,2.005,32.65,1111122 
SCCF RECON,ioos:station:SCCF:16:1,2010-03-09T08:00:00Z,26.4345,-81.9647,2.054,32.91,1111122 
SCCF RECON,ioos:station:SCCF:16:1,2010-03-09T09:00:00Z,26.4345,-81.9647,2.117,32.77,1111122 
SCCF RECON,ioos:station:SCCF:16:1,2010-03-09T10:00:00Z,26.4345,-81.9647,2.228,32.73,1111122 
SCCF RECON,ioos:station:SCCF:16:1,2010-03-09T11:00:00Z,26.4345,-81.9647,2.332,32.98,1111122 
SCCF RECON,ioos:station:SCCF:16:1,2010-03-09T12:00:00Z,26.4345,-81.9647,2.397,32.93,1111122 
SCCF RECON,ioos:station:SCCF:16:1,2010-03-09T13:00:00Z,26.4345,-81.9647,2.45,33.23,1111122 
SCCF RECON,ioos:station:SCCF:16:1,2010-03-09T14:00:00Z,26.4345,-81.9647,2.538,33.38,1111122 
SCCF RECON,ioos:station:SCCF:16:1,2010-03-09T15:00:00Z,26.4345,-81.9647,2.535,33.52,1111122 
SCCF RECON,ioos:station:SCCF:16:1,2010-03-09T16:00:00Z,26.4345,-81.9647,2.472,33.54,1111122 
SCCF RECON,ioos:station:SCCF:16:1,2010-03-09T17:00:00Z,26.4345,-81.9647,2.585,33.6,1111122 
SCCF RECON,ioos:station:SCCF:16:1,2010-03-09T18:00:00Z,26.4345,-81.9647,2.562,33.55,1111122 
SCCF RECON,ioos:station:SCCF:16:1,2010-03-09T19:00:00Z,26.4345,-81.9647,2.499,33.54,1111122 
SCCF RECON,ioos:station:SCCF:16:1,2010-03-09T20:00:00Z,26.4345,-81.9647,2.479,33.5,1111122 
SCCF RECON,ioos:station:SCCF:16:1,2010-03-09T21:00:00Z,26.4345,-81.9647,2.486,33.38,1111122 
SCCF RECON,ioos:station:SCCF:16:1,2010-03-09T22:00:00Z,26.4345,-81.9647,2.569,33.47,1111122 
SCCF RECON,ioos:station:SCCF:16:1,2010-03-09T23:00:00Z,26.4345,-81.9647,2.658,33.35,1111122 
SCCF RECON,ioos:station:SCCF:16:1,2010-03-10T00:00:00Z,26.4345,-81.9647,2.704,33.43,1111122 
SCCF RECON,ioos:station:SCCF:16:1,2010-03-10T01:00:00Z,26.4345,-81.9647,2.647,33.34,1111122 
SCCF RECON,ioos:station:SCCF:16:1,2010-03-10T02:00:00Z,26.4345,-81.9647,2.59,33.4,1111122 
SCCF RECON,ioos:station:SCCF:16:1,2010-03-10T03:00:00Z,26.4345,-81.9647,2.58,33.36,1111122 
SCCF RECON,ioos:station:SCCF:16:1,2010-03-10T04:00:00Z,26.4345,-81.9647,2.45,33.45,1111122 
SCCF RECON,ioos:station:SCCF:16:1,2010-03-10T05:00:00Z,26.4345,-81.9647,2.277,33.35,1111122 
SCCF RECON,ioos:station:SCCF:16:1,2010-03-10T06:00:00Z,26.4345,-81.9647,2.169,33.28,1111122 
SCCF RECON,ioos:station:SCCF:16:1,2010-03-10T07:00:00Z,26.4345,-81.9647,2.08,33.08,1111122 
SCCF RECON,ioos:station:SCCF:16:1,2010-03-10T08:00:00Z,26.4345,-81.9647,1.977,32.79,1111122 
SCCF RECON,ioos:station:SCCF:16:1,2010-03-10T09:00:00Z,26.4345,-81.9647,2.006,33.1,1111122 
SCCF RECON,ioos:station:SCCF:16:1,2010-03-10T10:00:00Z,26.4345,-81.9647,2.076,33.01,1111122 
SCCF RECON,ioos:station:SCCF:16:1,2010-03-10T11:00:00Z,26.4345,-81.9647,2.277,33.0,1111122 
SCCF RECON,ioos:station:SCCF:16:1,2010-03-10T12:00:00Z,26.4345,-81.9647,2.401,32.78,1111122 
SCCF RECON,ioos:station:SCCF:16:1,2010-03-10T13:00:00Z,26.4345,-81.9647,2.445,32.88,1111122 
SCCF RECON,ioos:station:SCCF:16:1,2010-03-10T14:00:00Z,26.4345,-81.9647,2.509,32.91,1111122 
SCCF RECON,ioos:station:SCCF:16:1,2010-03-10T15:00:00Z,26.4345,-81.9647,2.573,33.02,1111122 
SCCF RECON,ioos:station:SCCF:16:1,2010-03-10T16:00:00Z,26.4345,-81.9647,2.571,33.13,1111122 
SCCF RECON,ioos:station:SCCF:16:1,2010-03-10T17:00:00Z,26.4345,-81.9647,2.541,33.16,1111122 
SCCF RECON,ioos:station:SCCF:16:1,2010-03-10T18:00:00Z,26.4345,-81.9647,2.512,33.23,1111122 
SCCF RECON,ioos:station:SCCF:16:1,2010-03-10T19:00:00Z,26.4345,-81.9647,2.449,33.26,1111122 
SCCF RECON,ioos:station:SCCF:16:1,2010-03-10T20:00:00Z,26.4345,-81.9647,2.423,33.27,1111122 
SCCF RECON,ioos:station:SCCF:16:1,2010-03-10T21:00:00Z,26.4345,-81.9647,2.467,33.27,1111122 
SCCF RECON,ioos:station:SCCF:16:1,2010-03-10T22:00:00Z,26.4345,-81.9647,2.494,33.28,1111122 
SCCF RECON,ioos:station:SCCF:16:1,2010-03-10T23:00:00Z,26.4345,-81.9647,2.557,33.29,1111122 
SCCF RECON,ioos:station:SCCF:16:1,2010-03-11T00:00:00Z,26.4345,-81.9647,2.59,33.3,1111122 
SCCF RECON,ioos:station:SCCF:16:1,2010-03-11T01:00:00Z,26.4345,-81.9647,2.667,33.31,1111122 
SCCF RECON,ioos:station:SCCF:16:1,2010-03-11T02:00:00Z,26.4345,-81.9647,2.719,33.32,1111122 
SCCF RECON,ioos:station:SCCF:16:1,2010-03-11T03:00:00Z,26.4345,-81.9647,2.665,33.32,1111122 
SCCF RECON,ioos:station:SCCF:16:1,2010-03-11T04:00:00Z,26.4345,-81.9647,2.561,33.3,1111122 
SCCF RECON,ioos:station:SCCF:16:1,2010-03-11T05:00:00Z,26.4345,-81.9647,2.442,33.29,1111122 
SCCF RECON,ioos:station:SCCF:16:1,2010-03-11T06:00:00Z,26.4345,-81.9647,2.276,33.29,1111122 
SCCF RECON,ioos:station:SCCF:16:1,2010-03-11T07:00:00Z,26.4345,-81.9647,2.127,33.26,1111122 
SCCF RECON,ioos:station:SCCF:16:1,2010-03-11T08:00:00Z,26.4345,-81.9647,2.031,33.18,1111122 
SCCF RECON,ioos:station:SCCF:16:1,2010-03-11T09:00:00Z,26.4345,-81.9647,2.007,32.93,1111122 
SCCF RECON,ioos:station:SCCF:16:1,2010-03-11T10:00:00Z,26.4345,-81.9647,2.08,32.88,1111122 
SCCF RECON,ioos:station:SCCF:16:1,2010-03-11T11:00:00Z,26.4345,-81.9647,2.193,32.88,1111122 
SCCF RECON,ioos:station:SCCF:16:1,2010-03-11T12:00:00Z,26.4345,-81.9647,2.325,32.81,1111122 
SCCF RECON,ioos:station:SCCF:16:1,2010-03-11T13:00:00Z,26.4345,-81.9647,2.462,32.9,1111122 
SCCF RECON,ioos:station:SCCF:16:1,2010-03-11T14:00:00Z,26.4345,-81.9647,2.602,33.13,1111122 
SCCF RECON,ioos:station:SCCF:16:1,2010-03-11T15:00:00Z,26.4345,-81.9647,2.719,33.25,1111122 
SCCF RECON,ioos:station:SCCF:16:1,2010-03-11T16:00:00Z,26.4345,-81.9647,2.73,33.27,1111122 